Date String (YYYY-MM-DD hh:mm:ss) UTC,Instrument flags,absolute air pressure of the measurement (hPa),sample flow rate (lpm),inlet stack bypass flow (lpm),air temperature of the measurement (°C),ambient temperature measured by the external sensor (°C),aerosol sample conditioner tube jacket temperature (°C),OPC LED temperature (°C),internal box temperature (°C),relative humidity of the measurement (%),span deviation,mass concentration of particles derived from Lorenz-Mie calculation of OPC scattering (μg/m³),mass concentration of particles derived from Lorenz-Mie calculation of OPC scattering (μg/m³),mass concentration of particles derived from Lorenz-Mie calculation of OPC scattering (μg/m³)
DateTimeUTC,F1_M11,P_M11,Q1_M11,Q2_M11,T1_M11,T2_M11,T3_M11,T4_M11,T5_M11,U1_M11,ZSPAN_M11,X0_M11,X2_M11,X1_M11
2024-04-28 03:00:00,SystemResetWarning,0826.0,5.00,000.00,021.9,021.3,000.0,030.5,023.8,027.7,0000.0,0003.08,0001.79,0001.69
2024-04-28 03:01:00,SystemResetWarning,0826.0,5.00,000.00,022.0,021.3,000.0,030.5,023.8,027.7,0000.0,0003.05,0001.77,0001.69
2024-04-28 03:02:00,SystemResetWarning,0826.0,5.02,000.00,022.0,021.3,000.0,030.5,023.8,027.7,0000.0,0003.08,0001.80,0001.71
2024-04-28 03:03:00,SystemResetWarning,0826.0,5.00,000.00,022.0,021.3,000.0,030.5,023.8,027.6,0000.0,0003.11,0001.84,0001.75
2024-04-28 03:04:00,SystemResetWarning,0826.0,4.99,000.00,021.9,021.3,000.0,030.5,023.8,027.6,0000.0,0003.14,0001.87,0001.79
2024-04-28 03:05:00,SystemResetWarning,0826.0,4.99,000.00,022.0,021.3,000.0,030.5,023.8,027.6,0000.0,0003.14,0001.90,0001.82
2024-04-28 03:06:00,SystemResetWarning,0826.0,5.00,000.00,021.9,021.3,000.0,030.5,023.8,027.6,0000.0,0003.19,0001.93,0001.84
2024-04-28 03:07:00,SystemResetWarning,0826.0,5.01,000.00,022.0,021.3,000.0,030.5,023.8,027.5,0000.0,0004.42,0001.95,0001.87
2024-04-28 03:08:00,SystemResetWarning,0826.0,5.01,000.00,022.0,021.3,000.0,030.5,023.8,027.4,0000.0,0004.45,0001.97,0001.89
2024-04-28 03:09:00,SystemResetWarning,0826.0,5.00,000.00,021.9,021.3,000.0,030.5,023.8,027.4,0000.0,0004.51,0002.00,0001.91
2024-04-28 03:10:00,SystemResetWarning,0826.0,5.00,000.00,021.9,021.3,000.0,030.5,023.8,027.4,0000.0,0003.94,0002.02,0001.91
2024-04-28 03:11:00,SystemResetWarning,0826.1,5.00,000.00,022.0,021.3,000.0,030.5,023.8,027.4,0000.0,0003.48,0002.03,0001.91
2024-04-28 03:12:00,SystemResetWarning,0826.0,5.00,000.00,022.0,021.3,000.0,030.5,023.8,027.4,0000.0,0003.56,0002.07,0001.93
2024-04-28 03:13:00,SystemResetWarning,0826.0,5.00,000.00,021.9,021.3,000.0,030.5,023.8,027.4,0000.0,0003.57,0002.08,0001.94
2024-04-28 03:14:00,SystemResetWarning,0826.0,5.00,000.00,021.9,021.3,000.0,030.5,023.8,027.4,0000.0,0003.57,0002.07,0001.94
2024-04-28 03:15:00,SystemResetWarning,0826.1,5.00,000.00,021.9,021.3,000.0,030.5,023.8,027.4,0000.0,0003.58,0002.08,0001.94
2024-04-28 03:16:00,SystemResetWarning,0826.1,4.99,000.00,021.9,021.3,000.0,030.5,023.8,027.5,0000.0,0003.61,0002.10,0001.95
2024-04-28 03:17:00,SystemResetWarning,0826.1,4.99,000.00,021.9,021.3,000.0,030.5,023.8,027.5,0000.0,0003.57,0002.09,0001.95
2024-04-28 03:18:00,SystemResetWarning,0826.2,5.00,000.00,021.9,021.3,000.0,030.5,023.8,027.5,0000.0,0002.67,0002.09,0001.95
2024-04-28 03:19:00,SystemResetWarning,0826.2,5.01,000.00,021.9,021.3,000.0,030.5,023.8,027.5,0000.0,0002.40,0002.10,0001.94
2024-04-28 03:20:00,SystemResetWarning,0826.2,5.00,000.00,021.9,021.3,000.0,030.5,023.8,027.5,0000.0,0002.40,0002.11,0001.94
2024-04-28 03:21:00,SystemResetWarning,0826.2,4.99,000.00,021.9,021.3,000.0,030.5,023.8,027.7,0000.0,0002.33,0002.08,0001.94
2024-04-28 03:22:00,SystemResetWarning,0826.2,5.00,000.00,021.9,021.3,000.0,030.5,023.8,028.1,0000.0,0002.25,0002.06,0001.94
2024-04-28 03:23:00,SystemResetWarning,0826.2,5.01,000.00,021.9,021.3,000.0,030.5,023.8,027.8,0000.0,0002.16,0002.03,0001.92
2024-04-28 03:24:00,SystemResetWarning,0826.2,5.00,000.00,021.9,021.3,000.0,030.5,023.8,027.7,0000.0,0002.14,0002.00,0001.88
2024-04-28 03:25:00,SystemResetWarning,0826.2,5.00,000.00,021.9,021.3,000.0,030.5,023.8,027.6,0000.0,0002.09,0001.95,0001.84
2024-04-28 03:26:00,SystemResetWarning,0826.2,5.00,000.00,021.9,021.3,000.0,030.5,023.8,027.6,0000.0,0002.19,0001.93,0001.80
2024-04-28 03:27:00,SystemResetWarning,0826.2,5.00,000.00,021.9,021.3,000.0,030.5,023.8,027.6,0000.0,0002.14,0001.89,0001.77
2024-04-28 03:28:00,SystemResetWarning,0826.2,5.00,000.00,021.9,021.3,000.0,030.5,023.8,027.5,0000.0,0002.13,0001.87,0001.74
2024-04-28 03:29:00,SystemResetWarning,0826.2,5.00,000.00,021.9,021.3,000.0,030.5,023.8,027.5,0000.0,0002.09,0001.83,0001.69
2024-04-28 03:30:00,SystemResetWarning,0826.2,4.99,000.00,021.9,021.3,000.0,030.5,023.8,027.5,0000.0,0002.04,0001.78,0001.65
2024-04-28 03:31:00,SystemResetWarning,0826.2,5.00,000.00,021.9,021.3,000.0,030.5,023.8,027.5,0000.0,0002.01,0001.73,0001.61
2024-04-28 03:32:00,SystemResetWarning,0826.2,5.00,000.00,021.9,021.3,000.0,030.5,023.8,027.3,0000.0,0002.00,0001.71,0001.58
2024-04-28 03:33:00,SystemResetWarning,0826.2,5.00,000.00,021.9,021.3,000.0,030.5,023.8,027.2,0000.0,0001.99,0001.69,0001.56
2024-04-28 03:34:00,SystemResetWarning,0826.2,5.01,000.00,021.9,021.3,000.0,030.5,023.8,027.1,0000.0,0002.02,0001.70,0001.57
2024-04-28 03:35:00,SystemResetWarning,0826.2,5.00,000.00,021.9,021.3,000.0,030.5,023.8,027.1,0000.0,0002.65,0001.71,0001.59
2024-04-28 03:36:00,SystemResetWarning,0826.1,5.01,000.00,021.9,021.3,000.0,030.5,023.7,027.1,0000.0,0002.97,0001.77,0001.62
2024-04-28 03:37:00,SystemResetWarning,0826.2,5.00,000.00,021.9,021.2,000.0,030.5,023.8,027.0,0000.0,0003.04,0001.80,0001.66
2024-04-28 03:38:00,SystemResetWarning,0826.1,5.00,000.00,021.9,021.2,000.0,030.5,023.7,027.0,0000.0,0003.15,0001.84,0001.69
2024-04-28 03:39:00,SystemResetWarning,0826.1,4.99,000.00,021.9,021.2,000.0,030.5,023.7,026.9,0000.0,0003.20,0001.90,0001.75
2024-04-28 03:40:00,SystemResetWarning,0826.1,4.99,000.00,021.9,021.2,000.0,030.5,023.7,026.8,0000.0,0003.24,0001.96,0001.82
2024-04-28 03:41:00,SystemResetWarning,0826.0,4.99,000.00,021.9,021.2,000.0,030.5,023.7,026.8,0000.0,0003.39,0002.07,0001.92
2024-04-28 03:42:00,SystemResetWarning,0826.1,5.01,000.00,021.9,021.2,000.0,030.5,023.7,026.8,0000.0,0003.41,0002.13,0001.98
2024-04-28 03:43:00,SystemResetWarning,0826.0,5.01,000.00,021.9,021.2,000.0,030.5,023.7,026.9,0000.0,0003.37,0002.13,0001.98
2024-04-28 03:44:00,SystemResetWarning,0826.0,5.01,000.00,021.9,021.2,000.0,030.5,023.7,026.9,0000.0,0003.39,0002.11,0001.95
2024-04-28 03:45:00,SystemResetWarning,0826.0,4.99,000.00,021.9,021.2,000.0,030.4,023.7,027.0,0000.0,0003.33,0002.06,0001.90
2024-04-28 03:46:00,SystemResetWarning,0826.1,5.00,000.00,021.9,021.2,000.0,030.4,023.7,027.0,0000.0,0003.19,0002.02,0001.85
2024-04-28 03:47:00,SystemResetWarning,0826.1,4.99,000.00,021.9,021.2,000.0,030.4,023.7,027.1,0000.0,0004.06,0001.96,0001.80
2024-04-28 03:48:00,SystemResetWarning,0826.1,5.00,000.00,021.9,021.2,000.0,030.4,023.7,026.9,0000.0,0003.90,0001.88,0001.74
2024-04-28 03:49:00,SystemResetWarning,0826.0,4.99,000.00,021.9,021.2,000.0,030.4,023.7,026.9,0000.0,0003.61,0001.77,0001.63
2024-04-28 03:50:00,SystemResetWarning,0826.1,5.00,000.00,021.9,021.2,000.0,030.4,023.7,026.8,0000.0,0003.49,0001.64,0001.52
2024-04-28 03:51:00,SystemResetWarning,0826.1,5.00,000.00,021.9,021.1,000.0,030.4,023.7,026.8,0000.0,0003.38,0001.53,0001.40
2024-04-28 03:52:00,SystemResetWarning,0826.2,5.00,000.00,021.9,021.1,000.0,030.4,023.7,026.9,0000.0,0003.19,0001.38,0001.27
2024-04-28 03:53:00,SystemResetWarning,0826.1,5.00,000.00,021.9,021.1,000.0,030.4,023.7,026.8,0000.0,0003.09,0001.27,0001.17
2024-04-28 03:54:00,SystemResetWarning,0826.1,5.00,000.00,021.8,021.1,000.0,030.4,023.6,026.9,0000.0,0003.06,0001.22,0001.12
2024-04-28 03:55:00,SystemResetWarning,0826.1,4.99,000.00,021.8,021.1,000.0,030.4,023.6,026.8,0000.0,0003.00,0001.18,0001.10
2024-04-28 03:56:00,SystemResetWarning,0826.1,5.00,000.00,021.8,021.1,000.0,030.4,023.6,026.8,0000.0,0003.70,0001.15,0001.08
2024-04-28 03:57:00,SystemResetWarning,0826.0,5.00,000.00,021.8,021.1,000.0,030.4,023.6,026.9,0000.0,0004.20,0001.14,0001.06
2024-04-28 03:58:00,SystemResetWarning,0826.1,5.00,000.00,021.8,021.1,000.0,030.4,023.6,026.9,0000.0,0002.54,0001.10,0001.02
2024-04-28 03:59:00,SystemResetWarning,0826.0,5.00,000.00,021.8,021.1,000.0,030.4,023.6,027.3,0000.0,0002.54,0001.07,0000.99
